Language: 


Des rapports , des résumés tant et plus, au choix de chacun....


Données statistiques de la station
Quotidien Rapport Mai 6, 2017 Unités:  Anglais    Métrique   les deux
« Précédent Jour
Suivant Jour »
Quotidien Hebdomadaire Mensuel Annuel Actuel
  Haut: Bas: Moyen:
Température: 72.7 °F 44.8 °F 57.4 °F
Pt de rosée: 51.8 °F 44.6 °F 48.7 °F
Humidité: 98 % 46 % 75 %
Vitesse du vent: 12.1 mph 0 mph 6.6 mph
Rafales: 17 mph - -
Vent:- - East
Pression: 29.9 in 29.7 in -
Précipitation: 0 in    
Historical Graphs
 
 
Données statistiques pour Mai 6, 2017
Heure Température Point de rosée Pression Vent Vitesse du vent Refales Humidité Pluie (taux horaire)
00:00 48.6 °F 46.4 °F 29.9 in NE 6.5 mph 9.6 mph 91 % 0 in
00:05 48.6 °F 46.4 °F 29.9 in NE 5.4 mph 9.6 mph 91 % 0 in
00:11 48.6 °F 46.4 °F 29.9 in NE 7.4 mph 9.6 mph 91 % 0 in
00:16 48.4 °F 46.4 °F 29.9 in NNE 6.7 mph 9.6 mph 91 % 0 in
00:21 48.4 °F 46.4 °F 29.9 in NE 8.5 mph 8.9 mph 91 % 0 in
00:26 48.4 °F 46.4 °F 29.9 in East 6.5 mph 8.9 mph 91 % 0 in
00:31 48.4 °F 46.4 °F 29.9 in NNE 7.2 mph 8.9 mph 92 % 0 in
00:36 48.4 °F 46.4 °F 29.9 in NE 6.3 mph 8.9 mph 92 % 0 in
00:41 48.2 °F 46.4 °F 29.9 in NE 9.8 mph 9.8 mph 92 % 0 in
00:46 48.2 °F 46.4 °F 29.9 in ENE 8.1 mph 9.8 mph 92 % 0 in
00:51 48.2 °F 46.4 °F 29.9 in NE 6.3 mph 9.8 mph 93 % 0 in
00:56 48 °F 46.4 °F 29.9 in ENE 7.6 mph 9.8 mph 93 % 0 in
01:01 47.8 °F 46.4 °F 29.9 in ENE 6.5 mph 8.5 mph 93 % 0 in
01:06 47.8 °F 46.4 °F 29.9 in NE 4.9 mph 8.5 mph 93 % 0 in
01:11 47.8 °F 46.4 °F 29.9 in NE 6.5 mph 8.9 mph 93 % 0 in
01:16 47.7 °F 46.4 °F 29.9 in NE 6.3 mph 8.9 mph 93 % 0 in
01:21 47.7 °F 46.4 °F 29.9 in ENE 6.5 mph 8.7 mph 94 % 0 in
01:26 47.7 °F 46.4 °F 29.9 in ENE 6.5 mph 8.7 mph 94 % 0 in
01:31 47.7 °F 46.4 °F 29.9 in ENE 5.8 mph 8.7 mph 94 % 0 in
01:36 47.7 °F 46.4 °F 29.9 in NE 7.6 mph 8.7 mph 94 % 0 in
01:41 47.5 °F 46.4 °F 29.9 in NE 6.5 mph 8.7 mph 94 % 0 in
01:46 47.5 °F 46.4 °F 29.9 in ENE 6.3 mph 8.7 mph 95 % 0 in
01:51 47.5 °F 46.4 °F 29.9 in NNE 7.6 mph 8.7 mph 95 % 0 in
01:56 47.5 °F 46.4 °F 29.9 in ENE 5.6 mph 8.7 mph 95 % 0 in
02:01 47.3 °F 46.4 °F 29.9 in ENE 6 mph 8.7 mph 95 % 0 in
02:06 47.3 °F 46.4 °F 29.9 in ENE 4.9 mph 6.5 mph 95 % 0 in
02:11 47.1 °F 46.4 °F 29.9 in ENE 7.4 mph 8.5 mph 95 % 0 in
02:16 47.1 °F 46.4 °F 29.9 in NE 7.6 mph 8.5 mph 95 % 0 in
02:21 47.3 °F 46.4 °F 29.9 in NE 5.6 mph 8.7 mph 95 % 0 in
02:26 47.3 °F 46.4 °F 29.9 in ENE 6.7 mph 8.7 mph 95 % 0 in
02:32 47.3 °F 48.2 °F 29.9 in ENE 6.3 mph 9.2 mph 96 % 0 in
02:37 47.3 °F 48.2 °F 29.9 in ENE 6 mph 9.2 mph 96 % 0 in
02:42 47.1 °F 46.4 °F 29.9 in East 6 mph 8.9 mph 96 % 0 in
02:47 47.1 °F 46.4 °F 29.9 in ENE 6 mph 8.9 mph 96 % 0 in
02:52 47.1 °F 46.4 °F 29.9 in NE 6.5 mph 8.5 mph 96 % 0 in
02:54 47.1 °F 46.4 °F 29.9 in ENE 7.6 mph 8.5 mph 96 % 0 in
02:59 47.1 °F 46.4 °F 29.9 in ENE 5.8 mph 8.5 mph 96 % 0 in
03:00 47.1 °F 46.4 °F 29.9 in NE 5.4 mph 8.5 mph 96 % 0 in
03:05 46.9 °F 46.4 °F 29.9 in NE 7.6 mph 10.1 mph 96 % 0 in
03:10 46.9 °F 46.4 °F 29.9 in East 4 mph 10.1 mph 96 % 0 in
03:15 46.9 °F 46.4 °F 29.9 in ENE 5.8 mph 9.4 mph 97 % 0 in
03:20 46.8 °F 46.4 °F 29.9 in NE 5.4 mph 8.7 mph 96 % 0 in
03:25 46.8 °F 46.4 °F 29.9 in ENE 7.8 mph 8.5 mph 96 % 0 in
03:30 46.8 °F 46.4 °F 29.9 in ENE 5.8 mph 8.5 mph 96 % 0 in
03:35 46.8 °F 46.4 °F 29.9 in ENE 6 mph 8.7 mph 97 % 0 in
03:40 46.6 °F 46.4 °F 29.9 in ENE 5.4 mph 8.7 mph 97 % 0 in
03:45 46.6 °F 46.4 °F 29.9 in NE 5.6 mph 10.3 mph 97 % 0 in
03:50 46.6 °F 46.4 °F 29.9 in NE 5.8 mph 10.3 mph 97 % 0 in
03:55 46.4 °F 46.4 °F 29.9 in ENE 5.4 mph 7.8 mph 97 % 0 in
04:00 46.4 °F 46.4 °F 29.9 in ENE 7.8 mph 9.4 mph 97 % 0 in
04:05 46.4 °F 46.4 °F 29.9 in East 6.9 mph 9.4 mph 97 % 0 in
04:10 46.4 °F 46.4 °F 29.9 in ENE 8.7 mph 8.7 mph 97 % 0 in
04:15 46.4 °F 46.4 °F 29.9 in ENE 5.6 mph 8.7 mph 97 % 0 in
04:20 46.2 °F 46.4 °F 29.9 in NE 5.6 mph 8.7 mph 97 % 0 in
04:25 46.2 °F 46.4 °F 29.9 in NE 6.3 mph 7.6 mph 97 % 0 in
04:30 46.2 °F 46.4 °F 29.9 in East 5.4 mph 8.5 mph 98 % 0 in
04:35 46.2 °F 46.4 °F 29.9 in ENE 6.3 mph 8.5 mph 98 % 0 in
04:40 46 °F 46.4 °F 29.9 in NE 6.5 mph 8.1 mph 98 % 0 in
04:41 46 °F 46.4 °F 29.9 in ENE 5.4 mph 8.1 mph 98 % 0 in
04:46 46 °F 46.4 °F 29.9 in NE 6 mph 8.5 mph 98 % 0 in
04:51 45.9 °F 46.4 °F 29.8 in NE 6.5 mph 8.5 mph 98 % 0 in
04:52 45.9 °F 46.4 °F 29.8 in ENE 7.2 mph 8.1 mph 98 % 0 in
04:57 45.9 °F 46.4 °F 29.8 in ENE 5.8 mph 8.1 mph 98 % 0 in
05:02 45.7 °F 46.4 °F 29.8 in NE 5.8 mph 8.1 mph 98 % 0 in
05:07 45.5 °F 46.4 °F 29.9 in NE 7.6 mph 8.1 mph 98 % 0 in
05:12 45.5 °F 46.4 °F 29.9 in NE 7.8 mph 7.8 mph 98 % 0 in
05:17 45.5 °F 46.4 °F 29.9 in NE 6.3 mph 8.7 mph 98 % 0 in
05:23 45.5 °F 46.4 °F 29.9 in East 7.6 mph 8.7 mph 98 % 0 in
05:28 45.3 °F 44.6 °F 29.9 in NE 5.4 mph 7.8 mph 98 % 0 in
05:33 45.3 °F 44.6 °F 29.9 in ENE 4.3 mph 8.1 mph 98 % 0 in
05:38 45.1 °F 44.6 °F 29.9 in NE 6 mph 8.7 mph 98 % 0 in
05:43 45.3 °F 44.6 °F 29.9 in NE 7.8 mph 8.7 mph 98 % 0 in
05:48 45.1 °F 44.6 °F 29.9 in ENE 5.6 mph 8.1 mph 98 % 0 in
05:53 45.1 °F 44.6 °F 29.9 in ENE 6.5 mph 8.1 mph 98 % 0 in
05:58 45.1 °F 44.6 °F 29.9 in NE 5.8 mph 8.5 mph 98 % 0 in
06:03 45 °F 44.6 °F 29.9 in NE 7.4 mph 8.5 mph 98 % 0 in
06:08 45.1 °F 44.6 °F 29.9 in ENE 6.5 mph 8.5 mph 98 % 0 in
06:13 45.1 °F 44.6 °F 29.9 in NE 7.6 mph 9.8 mph 98 % 0 in
06:18 45 °F 44.6 °F 29.9 in NE 7.4 mph 9.8 mph 98 % 0 in
06:23 45 °F 44.6 °F 29.8 in ENE 7.8 mph 9.6 mph 98 % 0 in
06:28 45 °F 44.6 °F 29.8 in East 6.9 mph 9.6 mph 98 % 0 in
06:33 44.8 °F 44.6 °F 29.8 in NE 6.5 mph 8.7 mph 98 % 0 in
06:38 44.8 °F 44.6 °F 29.8 in ENE 7.4 mph 8.7 mph 98 % 0 in
06:43 44.8 °F 44.6 °F 29.8 in East 5.4 mph 9.2 mph 98 % 0 in
06:48 44.8 °F 44.6 °F 29.8 in ENE 7.6 mph 9.2 mph 98 % 0 in
06:53 45 °F 44.6 °F 29.8 in NE 5.4 mph 8.7 mph 98 % 0 in
06:58 45 °F 44.6 °F 29.8 in NE 8.1 mph 8.7 mph 98 % 0 in
07:03 45.1 °F 44.6 °F 29.8 in ENE 5.6 mph 10.3 mph 98 % 0 in
07:08 45.3 °F 44.6 °F 29.8 in ENE 6.7 mph 10.3 mph 98 % 0 in
07:14 45.5 °F 46.4 °F 29.8 in NE 7.6 mph 8.7 mph 98 % 0 in
07:19 45.7 °F 46.4 °F 29.8 in ENE 5.8 mph 8.7 mph 98 % 0 in
07:20 45.7 °F 46.4 °F 29.8 in ENE 10.5 mph 10.5 mph 98 % 0 in
07:25 45.9 °F 46.4 °F 29.8 in ENE 8.7 mph 10.5 mph 98 % 0 in
07:30 46 °F 46.4 °F 29.8 in NE 7.8 mph 10.5 mph 98 % 0 in
07:35 46.2 °F 46.4 °F 29.8 in NE 7.6 mph 9.8 mph 98 % 0 in
07:40 46.4 °F 46.4 °F 29.8 in NE 7.2 mph 9.2 mph 98 % 0 in
07:45 46.6 °F 46.4 °F 29.8 in NE 10.3 mph 10.3 mph 98 % 0 in
07:50 46.9 °F 48.2 °F 29.8 in ENE 6 mph 10.3 mph 98 % 0 in
07:55 47.3 °F 48.2 °F 29.8 in NNE 4 mph 10.1 mph 98 % 0 in
08:00 47.5 °F 48.2 °F 29.8 in ENE 10.1 mph 10.3 mph 98 % 0 in
08:05 48 °F 48.2 °F 29.8 in NE 6.5 mph 10.3 mph 98 % 0 in
08:10 48.2 °F 48.2 °F 29.8 in NE 10.3 mph 10.5 mph 98 % 0 in
08:16 48.4 °F 48.2 °F 29.8 in ENE 6.5 mph 10.5 mph 98 % 0 in
08:21 48.7 °F 48.2 °F 29.8 in NE 8.7 mph 10.1 mph 98 % 0 in
08:26 48.9 °F 48.2 °F 29.8 in NNE 7.4 mph 10.5 mph 98 % 0 in
08:31 49.1 °F 50 °F 29.8 in NNE 7.6 mph 10.5 mph 98 % 0 in
08:36 49.6 °F 50 °F 29.8 in NE 7.6 mph 12.1 mph 98 % 0 in
08:41 50.4 °F 50 °F 29.8 in NE 6.5 mph 12.1 mph 97 % 0 in
08:46 50.7 °F 50 °F 29.8 in ENE 7.2 mph 10.3 mph 97 % 0 in
08:51 51.1 °F 50 °F 29.8 in ENE 8.1 mph 10.7 mph 96 % 0 in
08:56 51.6 °F 51.8 °F 29.8 in NE 7.6 mph 10.7 mph 96 % 0 in
09:01 52 °F 50 °F 29.8 in NE 8.1 mph 10.5 mph 95 % 0 in
09:06 52.3 °F 50 °F 29.8 in ENE 8.5 mph 10.5 mph 94 % 0 in
09:11 52.7 °F 51.8 °F 29.8 in NE 8.7 mph 10.1 mph 94 % 0 in
09:16 52.9 °F 50 °F 29.8 in NNE 4.3 mph 11 mph 92 % 0 in
09:21 53.1 °F 50 °F 29.8 in NE 8.5 mph 11 mph 91 % 0 in
09:26 53.4 °F 51.8 °F 29.8 in NNE 7.8 mph 11.9 mph 91 % 0 in
09:31 53.8 °F 51.8 °F 29.8 in NE 8.7 mph 12.5 mph 89 % 0 in
09:36 54.1 °F 51.8 °F 29.8 in NNE 9.8 mph 13.2 mph 87 % 0 in
09:41 54.3 °F 50 °F 29.8 in ENE 11 mph 13.2 mph 86 % 0 in
09:46 55 °F 51.8 °F 29.8 in ENE 5.6 mph 12.3 mph 86 % 0 in
09:52 55.2 °F 50 °F 29.8 in NNE 10.3 mph 13 mph 83 % 0 in
09:57 55.8 °F 51.8 °F 29.8 in ENE 7.8 mph 13 mph 83 % 0 in
10:02 56.5 °F 51.8 °F 29.8 in ENE 6.9 mph 12.3 mph 83 % 0 in
10:07 56.7 °F 51.8 °F 29.8 in ENE 8.5 mph 12.1 mph 82 % 0 in
10:12 57 °F 51.8 °F 29.8 in NE 5.8 mph 12.1 mph 80 % 0 in
10:17 57.2 °F 50 °F 29.8 in ENE 7.8 mph 12.5 mph 78 % 0 in
10:22 57.7 °F 51.8 °F 29.8 in NE 11 mph 13 mph 78 % 0 in
10:27 58.1 °F 51.8 °F 29.8 in NE 7.8 mph 13 mph 77 % 0 in
10:32 58.1 °F 50 °F 29.8 in NE 10.5 mph 12.5 mph 74 % 0 in
10:37 58.1 °F 51.8 °F 29.8 in ENE 6.5 mph 12.5 mph 75 % 0 in
10:42 59 °F 51.8 °F 29.8 in NNE 11 mph 11 mph 75 % 0 in
10:47 59 °F 50 °F 29.8 in ENE 8.7 mph 11 mph 73 % 0 in
10:52 59.7 °F 51.8 °F 29.8 in NE 8.7 mph 10.7 mph 74 % 0 in
10:57 59.9 °F 51.8 °F 29.8 in ENE 10.1 mph 10.5 mph 72 % 0 in
11:02 60.4 °F 51.8 °F 29.8 in NE 10.7 mph 11.4 mph 72 % 0 in
11:07 60.6 °F 51.8 °F 29.8 in NE 7.8 mph 13 mph 70 % 0 in
11:12 61 °F 50 °F 29.8 in ENE 7.6 mph 13 mph 67 % 0 in
11:17 61.3 °F 51.8 °F 29.8 in NE 6.5 mph 12.5 mph 69 % 0 in
11:22 61.5 °F 50 °F 29.8 in NNE 10.5 mph 13.2 mph 67 % 0 in
11:27 61.9 °F 51.8 °F 29.8 in NE 10.1 mph 13.2 mph 68 % 0 in
11:32 62.6 °F 51.8 °F 29.8 in NE 8.7 mph 12.1 mph 66 % 0 in
11:37 63 °F 51.8 °F 29.8 in NE 7.6 mph 12.1 mph 66 % 0 in
11:42 63.1 °F 51.8 °F 29.8 in ENE 11 mph 13.4 mph 64 % 0 in
11:47 63.1 °F 50 °F 29.8 in ENE 8.5 mph 13.4 mph 63 % 0 in
11:52 63.7 °F 50 °F 29.7 in NE 9.2 mph 11.9 mph 61 % 0 in
11:58 64 °F 51.8 °F 29.7 in ENE 8.5 mph 11.9 mph 63 % 0 in
12:03 64.2 °F 50 °F 29.7 in NE 9.8 mph 12.5 mph 61 % 0 in
12:08 64.4 °F 50 °F 29.7 in NE 7.6 mph 13 mph 59 % 0 in
12:13 65.1 °F 51.8 °F 29.7 in NE 7.6 mph 13 mph 61 % 0 in
12:18 65.5 °F 51.8 °F 29.7 in ENE 8.7 mph 11.2 mph 61 % 0 in
12:23 65.3 °F 51.8 °F 29.7 in ENE 8.5 mph 12.8 mph 60 % 0 in
12:28 66.2 °F 50 °F 29.7 in NNE 9.8 mph 12.8 mph 57 % 0 in
12:33 66.4 °F 50 °F 29.7 in ENE 8.5 mph 12.5 mph 56 % 0 in
12:38 66.6 °F 50 °F 29.7 in East 8.5 mph 12.5 mph 56 % 0 in
12:43 66.4 °F 50 °F 29.7 in ENE 8.7 mph 12.5 mph 55 % 0 in
12:48 66.7 °F 50 °F 29.7 in East 5.6 mph 12.5 mph 56 % 0 in
12:53 67.3 °F 50 °F 29.7 in East 4.9 mph 12.5 mph 53 % 0 in
12:55 67.6 °F 50 °F 29.7 in ENE 12.1 mph 12.1 mph 54 % 0 in
13:00 67.5 °F 50 °F 29.7 in NE 8.7 mph 12.8 mph 53 % 0 in
13:05 67.6 °F 50 °F 29.7 in NE 10.3 mph 12.8 mph 53 % 0 in
13:10 67.6 °F 50 °F 29.7 in ENE 8.9 mph 12.8 mph 52 % 0 in
13:15 67.3 °F 50 °F 29.7 in NE 7.8 mph 12.8 mph 52 % 0 in
13:20 68 °F 50 °F 29.7 in NE 8.1 mph 12.3 mph 53 % 0 in
13:25 68.5 °F 50 °F 29.7 in NE 10.1 mph 12.3 mph 51 % 0 in
13:30 69.1 °F 50 °F 29.7 in East 7.8 mph 11.2 mph 51 % 0 in
13:35 70 °F 51.8 °F 29.7 in ENE 6.3 mph 11.2 mph 52 % 0 in
13:40 70.2 °F 50 °F 29.7 in East 8.1 mph 10.5 mph 49 % 0 in
13:45 69.8 °F 50 °F 29.7 in ENE 8.7 mph 10.5 mph 50 % 0 in
13:50 69.4 °F 50 °F 29.7 in NE 9.8 mph 10.7 mph 49 % 0 in
13:55 69.1 °F 50 °F 29.7 in NNE 7.8 mph 11 mph 49 % 0 in
14:00 70 °F 50 °F 29.7 in NE 5.8 mph 11 mph 49 % 0 in
14:05 69.1 °F 50 °F 29.7 in ENE 9.8 mph 10.3 mph 49 % 0 in
14:11 69.4 °F 48.2 °F 29.7 in NE 9.8 mph 12.1 mph 48 % 0 in
14:16 70 °F 50 °F 29.7 in ENE 7.8 mph 12.1 mph 49 % 0 in
14:21 69.6 °F 50 °F 29.7 in ENE 8.5 mph 11 mph 48 % 0 in
14:26 70.3 °F 50 °F 29.7 in ENE 7.4 mph 11 mph 49 % 0 in
14:31 70.2 °F 50 °F 29.7 in NNE 3.6 mph 10.5 mph 48 % 0 in
14:36 70.9 °F 51.8 °F 29.7 in ENE 8.5 mph 10.5 mph 49 % 0 in
14:41 70.5 °F 50 °F 29.7 in ENE 5.8 mph 10.5 mph 48 % 0 in
14:46 70.5 °F 50 °F 29.7 in East 5.4 mph 14.5 mph 48 % 0 in
14:51 71.2 °F 50 °F 29.7 in NNE 6.3 mph 14.5 mph 48 % 0 in
14:56 72 °F 51.8 °F 29.7 in NE 5.4 mph 17 mph 48 % 0 in
15:01 72.7 °F 51.8 °F 29.7 in East 6.5 mph 17 mph 48 % 0 in
15:06 72.3 °F 51.8 °F 29.7 in NE 5.4 mph 10.7 mph 47 % 0 in
15:11 71.8 °F 50 °F 29.7 in East 7.6 mph 10.7 mph 46 % 0 in
15:16 71.2 °F 50 °F 29.7 in ENE 6.5 mph 10.5 mph 46 % 0 in
15:21 71.4 °F 50 °F 29.7 in ESE 6.5 mph 10.5 mph 46 % 0 in
15:22 71.4 °F 50 °F 29.7 in ESE 9.2 mph 10.5 mph 46 % 0 in
15:27 71.4 °F 50 °F 29.7 in East 8.7 mph 10.5 mph 46 % 0 in
15:32 71.1 °F 50 °F 29.7 in ESE 10.3 mph 12.8 mph 46 % 0 in
15:37 71.1 °F 50 °F 29.7 in ESE 6 mph 13.4 mph 46 % 0 in
15:42 70.7 °F 50 °F 29.7 in East 6.5 mph 13.4 mph 46 % 0 in
15:47 70 °F 48.2 °F 29.7 in ENE 6.5 mph 13 mph 46 % 0 in
15:52 69.8 °F 48.2 °F 29.7 in ESE 8.7 mph 13 mph 46 % 0 in
15:57 69.6 °F 48.2 °F 29.7 in East 3.6 mph 8.7 mph 47 % 0 in
16:02 69.4 °F 48.2 °F 29.7 in East 7.4 mph 10.7 mph 47 % 0 in
16:07 69.6 °F 48.2 °F 29.7 in NNE 6.5 mph 10.7 mph 47 % 0 in
16:12 69.4 °F 48.2 °F 29.7 in ESE 7.8 mph 10.1 mph 47 % 0 in
16:17 69.4 °F 48.2 °F 29.7 in ESE 7.4 mph 10.1 mph 48 % 0 in
16:22 69.6 °F 50 °F 29.7 in East 7.4 mph 8.7 mph 48 % 0 in
16:28 69.6 °F 50 °F 29.7 in NE 5.6 mph 8.1 mph 48 % 0 in
16:33 69.6 °F 50 °F 29.7 in ESE 3.1 mph 8.1 mph 48 % 0 in
16:38 69.6 °F 50 °F 29.7 in East 6.3 mph 8.9 mph 48 % 0 in
16:43 69.6 °F 50 °F 29.7 in NE 6 mph 8.9 mph 48 % 0 in
16:48 69.8 °F 48.2 °F 29.7 in East 6.3 mph 7.8 mph 47 % 0 in
16:53 69.6 °F 50 °F 29.7 in ENE 6 mph 7.6 mph 48 % 0 in
16:58 69.1 °F 48.2 °F 29.7 in North 6.5 mph 8.7 mph 48 % 0 in
17:03 68.9 °F 48.2 °F 29.7 in ENE 6 mph 8.7 mph 48 % 0 in
17:08 68.9 °F 48.2 °F 29.7 in NNE 3.8 mph 7.8 mph 47 % 0 in
17:13 68.9 °F 48.2 °F 29.7 in NNE 6.3 mph 7.8 mph 47 % 0 in
17:18 68.9 °F 48.2 °F 29.7 in NNE 6.3 mph 8.7 mph 47 % 0 in
17:23 69.1 °F 48.2 °F 29.7 in NE 7.4 mph 8.7 mph 47 % 0 in
17:28 69.1 °F 48.2 °F 29.7 in East 2.5 mph 8.7 mph 47 % 0 in
17:33 68.9 °F 48.2 °F 29.7 in ENE 6.5 mph 8.5 mph 47 % 0 in
17:38 68.7 °F 48.2 °F 29.7 in NE 4 mph 7.4 mph 47 % 0 in
17:43 68.5 °F 48.2 °F 29.7 in NE 7.8 mph 9.8 mph 46 % 0 in
17:48 68.5 °F 48.2 °F 29.7 in ENE 4 mph 10.3 mph 46 % 0 in
17:53 68.5 °F 48.2 °F 29.7 in NE 5.8 mph 10.3 mph 47 % 0 in
17:58 68.4 °F 48.2 °F 29.7 in ENE 4.9 mph 8.1 mph 46 % 0 in
18:03 68.4 °F 48.2 °F 29.7 in NE 4.9 mph 8.1 mph 47 % 0 in
18:08 68.2 °F 46.4 °F 29.8 in NE 6.5 mph 8.5 mph 46 % 0 in
18:13 67.8 °F 48.2 °F 29.8 in NE 10.3 mph 12.5 mph 47 % 0 in
18:18 67.6 °F 48.2 °F 29.8 in NE 6.5 mph 12.5 mph 48 % 0 in
18:23 67.5 °F 48.2 °F 29.8 in North 11 mph 12.1 mph 48 % 0 in
18:28 67.1 °F 48.2 °F 29.8 in North 10.5 mph 15.7 mph 48 % 0 in
18:33 66.7 °F 46.4 °F 29.8 in North 6 mph 15.7 mph 48 % 0 in
18:38 66.6 °F 48.2 °F 29.7 in NNE 7.8 mph 13 mph 49 % 0 in
18:39 66.6 °F 48.2 °F 29.7 in NNE 7.4 mph 13 mph 49 % 0 in
18:44 66.4 °F 46.4 °F 29.7 in NE 5.6 mph 13 mph 49 % 0 in
18:49 66.2 °F 48.2 °F 29.7 in NNE 9.4 mph 10.7 mph 50 % 0 in
18:54 66.2 °F 48.2 °F 29.7 in NE 8.1 mph 10.7 mph 50 % 0 in
18:59 66 °F 48.2 °F 29.7 in NE 7.6 mph 10.7 mph 51 % 0 in
19:04 66 °F 48.2 °F 29.7 in NE 8.5 mph 12.8 mph 51 % 0 in
19:09 65.8 °F 48.2 °F 29.7 in ENE 5.4 mph 12.8 mph 52 % 0 in
19:14 65.8 °F 48.2 °F 29.7 in North 7.8 mph 10.7 mph 53 % 0 in
19:19 65.7 °F 48.2 °F 29.7 in NE 5.6 mph 9.8 mph 54 % 0 in
19:24 65.7 °F 48.2 °F 29.7 in North 5.8 mph 9.8 mph 55 % 0 in
19:29 65.5 °F 48.2 °F 29.7 in NNE 4.9 mph 7.8 mph 55 % 0 in
19:34 65.3 °F 50 °F 29.7 in East 4.7 mph 7.8 mph 56 % 0 in
19:39 64.9 °F 50 °F 29.7 in East 4.3 mph 7.6 mph 57 % 0 in
19:44 64.4 °F 50 °F 29.7 in SSE 6.5 mph 6.5 mph 59 % 0 in
19:49 63.7 °F 50 °F 29.7 in Calm   6.5 mph 62 % 0 in
19:54 63.1 °F 51.8 °F 29.7 in South 5.6 mph 6 mph 64 % 0 in
19:59 62.6 °F 51.8 °F 29.7 in SE 1.1 mph 5.6 mph 65 % 0 in
20:04 62.4 °F 51.8 °F 29.7 in Calm   3.4 mph 66 % 0 in
20:09 62.1 °F 51.8 °F 29.8 in Calm   3.4 mph 67 % 0 in
20:14 61.9 °F 51.8 °F 29.8 in North 1.1 mph 2 mph 69 % 0 in
20:19 61.7 °F 51.8 °F 29.8 in NNW 2.9 mph 2.9 mph 69 % 0 in
20:24 61.7 °F 51.8 °F 29.8 in NNE 1.1 mph 3.6 mph 69 % 0 in
20:29 61.7 °F 51.8 °F 29.8 in NE 2.9 mph 3.8 mph 69 % 0 in
20:34 61.7 °F 51.8 °F 29.8 in Calm   3.8 mph 69 % 0 in
20:39 61.3 °F 51.8 °F 29.8 in Calm   3.8 mph 70 % 0 in
20:44 61 °F 51.8 °F 29.8 in ENE 3.1 mph 3.6 mph 71 % 0 in
20:49 60.8 °F 51.8 °F 29.8 in Calm   3.6 mph 72 % 0 in
20:54 60.8 °F 51.8 °F 29.8 in Calm   7.2 mph 71 % 0 in
20:59 60.6 °F 51.8 °F 29.8 in Calm   7.2 mph 72 % 0 in
21:05 60.6 °F 51.8 °F 29.8 in ENE 0.9 mph 5.8 mph 71 % 0 in
21:10 60.8 °F 51.8 °F 29.8 in NE 3.8 mph 7.4 mph 70 % 0 in
21:15 60.8 °F 50 °F 29.8 in NNE 8.1 mph 8.1 mph 69 % 0 in
21:20 60.8 °F 50 °F 29.8 in North 5.6 mph 8.5 mph 69 % 0 in
21:25 60.8 °F 50 °F 29.8 in North 6.3 mph 8.7 mph 69 % 0 in
21:30 60.6 °F 50 °F 29.8 in NNE 4 mph 8.7 mph 69 % 0 in
21:35 60.4 °F 50 °F 29.8 in North 5.6 mph 6.3 mph 69 % 0 in
21:40 60.3 °F 50 °F 29.8 in NNE 4.9 mph 6.3 mph 69 % 0 in
21:45 60.1 °F 50 °F 29.8 in NNW 4.7 mph 7.2 mph 69 % 0 in
21:50 60.1 °F 50 °F 29.8 in NW 2.9 mph 7.2 mph 70 % 0 in
21:55 59.7 °F 50 °F 29.8 in North 4.9 mph 7.4 mph 70 % 0 in
22:00 59.5 °F 50 °F 29.8 in North 6.5 mph 7.4 mph 71 % 0 in
22:05 59.4 °F 50 °F 29.8 in NNW 2 mph 7.2 mph 71 % 0 in
22:10 59.2 °F 50 °F 29.8 in North 3.8 mph 7.6 mph 71 % 0 in
22:15 58.8 °F 50 °F 29.8 in NNW 2.2 mph 7.6 mph 72 % 0 in
22:20 58.6 °F 50 °F 29.8 in North 8.1 mph 8.1 mph 73 % 0 in
22:25 58.5 °F 50 °F 29.8 in NNW 3.4 mph 8.1 mph 73 % 0 in
22:30 58.3 °F 50 °F 29.8 in ENE 5.8 mph 8.5 mph 73 % 0 in
22:35 58.1 °F 50 °F 29.8 in North 7.8 mph 8.7 mph 74 % 0 in
22:40 57.9 °F 50 °F 29.8 in North 7.6 mph 9.8 mph 74 % 0 in
22:45 57.7 °F 50 °F 29.8 in North 3.6 mph 9.8 mph 74 % 0 in
22:50 57.6 °F 50 °F 29.8 in North 7.6 mph 7.6 mph 75 % 0 in
22:55 57.6 °F 50 °F 29.8 in NNW 3.8 mph 7.6 mph 75 % 0 in
23:00 57.4 °F 50 °F 29.8 in NNW 3.4 mph 8.5 mph 76 % 0 in
23:05 57.2 °F 50 °F 29.8 in NNW 5.4 mph 8.5 mph 76 % 0 in
23:11 57.2 °F 50 °F 29.8 in NNW 6 mph 7.6 mph 77 % 0 in
23:16 57 °F 50 °F 29.8 in NNE 3.8 mph 7.6 mph 78 % 0 in
23:21 56.8 °F 50 °F 29.8 in North 3.8 mph 7.6 mph 78 % 0 in
23:26 56.7 °F 50 °F 29.8 in North 2 mph 6.5 mph 79 % 0 in
23:31 56.7 °F 51.8 °F 29.8 in North 5.6 mph 7.4 mph 80 % 0 in
23:36 56.7 °F 51.8 °F 29.8 in NNW 3.1 mph 8.7 mph 80 % 0 in
23:41 56.5 °F 51.8 °F 29.8 in North 6.9 mph 9.6 mph 81 % 0 in
23:46 56.5 °F 51.8 °F 29.8 in North 3.6 mph 9.6 mph 81 % 0 in
23:51 56.3 °F 51.8 °F 29.8 in North 5.4 mph 7.8 mph 81 % 0 in
23:56 56.3 °F 51.8 °F 29.8 in NNW 3.4 mph 7.8 mph 81 % 0 in
Le Gheer Warneton
Courtoisie de Weather Underground - 2.5 mb

Mise a jour : 18/12/2017 04:22:12
Généré par Cumulus 1.9.4 (1099)